Vertical_Velocity
2 3 3 3 2 1 -4 -2 -0 -0 -1 -1 -3 -4 -4 -3 -4 -6 -5 -2 0 2 3 3 4 4 3 1 -2 -4 -6 -7 -6 -6 -6 -4 -2 -1 0 1 1 1 1 2 2 2 2 2 1 0 -1 -2 -3 -2 -1 1 2 1 1 0 0 0 1 1 1 1 1 1 0 0 1 3 3 3 0 -0 3 9 16 17 13 7 0 2 4 6
2 3 2 3 3 2 -4 -2 1 3 2 -0 -2 -2 0 1 -0 -3 -4 -4 -3 -2 -0 1 2 2 1 -2 -3 -4 -4 -3 -4 -4 -5 -4 -3 -2 -1 0 1 1 1 1 1 1 1 0 0 -0 -1 -1 -2 -2 -2 -1 -0 0 -0 -0 -0 -0 0 0 0 -0 -0 0 1 2 2 5 8 8 6 4 5 8 14 16 15 10 4 4 5 5
2 2 -1 1 3 3 -2 -3 -1 1 1 -2 -3 -3 -0 1 -1 -2 -3 -3 -3 -3 -2 -2 -1 -1 -2 -4 -3 -2 -1 -2 -2 -3 -4 -4 -4 -3 -2 -2 -1 -1 -0 -0 -1 -1 -1 -1 -1 -1 -1 -1 -1 -1 -1 -2 -1 -0 0 -1 -1 -1 -2 -3 -4 -3 -3 -1 1 4 5 9 13 15 13 9 6 5 9 12 13 11 8 6 5 4
3 2 -4 -2 -0 1 -2 -3 -3 -4 -5 -6 -6 -6 -3 -3 -4 -6 -5 -4 -5 -6 -7 -6 -4 -2 -2 -2 -1 -0 0 -1 -1 -2 -3 -4 -4 -4 -4 -4 -3 -2 -1 -1 -1 -2 -2 -2 -2 -1 -2 -2 -1 0 1 0 0 -0 -1 -2 -2 -2 -3 -5 -6 -6 -5 -2 1 4 7 10 14 18 19 13 6 2 2 6 9 10 10 9 8 6
2 3 -3 -2 -3 -5 -7 -4 -4 -6 -7 -7 -7 -7 -6 -6 -7 -8 -9 -8 -8 -9 -10 -7 -4 -2 -1 -1 -1 -0 1 0 -1 -2 -3 -3 -4 -5 -5 -5 -4 -3 -2 -1 -1 -1 -2 -2 -1 -2 -2 -2 -2 -1 0 1 1 0 -1 -2 -2 -1 -1 -3 -5 -6 -6 -4 -1 3 5 5 6 10 16 13 6 -0 -2 3 6 8 8 9 10 10
-1 1 -2 -2 -5 -9 -10 -7 -6 -5 -5 -7 -7 -7 -6 -7 -7 -7 -8 -9 -8 -8 -8 -6 -4 -2 -0 -1 -1 -1 1 1 0 -1 -2 -3 -4 -4 -4 -4 -3 -2 -2 -1 -1 -1 -1 -1 -1 -1 -2 -2 -2 -2 -1 -0 0 0 -1 -2 -2 0 2 1 -2 -5 -7 -6 -4 -1 1 0 0 2 9 11 7 2 -1 2 4 4 3 5 9 12
-6 -5 -1 -3 -7 -9 -7 -8 -6 -4 -1 -5 -7 -7 -5 -4 -4 -5 -7 -6 -5 -4 -5 -5 -4 -2 -1 -2 -2 -1 0 0 -0 -1 -1 -2 -3 -3 -3 -2 -2 -1 -1 -1 -1 -1 -1 -1 -1 -1 -1 -2 -3 -3 -3 -2 -0 0 -1 -3 -2 -0 4 4 2 -2 -6 -7 -6 -5 -3 -2 -1 1 4 8 9 7 3 3 3 3 0 1 5 9
-9 -8 -1 -1 -3 -5 -5 -6 -5 -2 0 -2 -3 -4 -4 -4 -4 -5 -6 -4 -3 -2 -2 -5 -6 -5 -5 -4 -2 -1 -1 -1 -2 -2 -2 -2 -2 -3 -2 -1 -1 -1 -1 -1 -1 -1 -1 -1 -1 -1 -2 -2 -2 -3 -3 -3 -2 -1 -1 -3 -3 -1 3 5 4 1 -5 -7 -7 -5 -3 -2 -0 2 4 7 10 10 7 5 5 4 2 -1 0 4
-4 -6 -4 -1 1 2 -2 -9 -9 -4 3 2 0 -1 -2 -5 -8 -8 -4 -3 -3 -1 1 -3 -7 -10 -10 -5 -2 -1 -2 -2 -2 -3 -4 -4 -4 -4 -3 -2 -1 -1 -1 -1 -1 -1 -1 -2 -2 -2 -2 -2 -2 -2 -2 -3 -2 -2 -2 -3 -3 -2 1 5 5 3 -2 -5 -5 -4 -2 0 2 3 5 7 9 10 9 8 8 7 6 1 -1 1
-2 -3 -6 -7 -3 0 1 -11 -14 -9 5 4 1 -1 -1 -5 -7 -7 -3 -5 -4 -1 3 -2 -7 -11 -13 -8 -4 -2 -3 -5 -5 -4 -2 -3 -3 -3 -2 -2 -2 -3 -3 -3 -3 -3 -3 -3 -2 -2 -1 -1 -1 -1 -1 -1 -2 -2 -2 -2 -3 -4 -2 1 3 3 -0 -3 -4 -3 -2 0 2 4 5 6 7 8 8 8 9 9 10 6 2 0
-5 -4 -3 -7 -7 -5 0 -7 -10 -7 5 4 0 -4 -5 -5 -3 -1 -3 -10 -8 -3 2 -2 -4 -7 -9 -10 -7 -4 -2 -6 -8 -7 -3 -2 -1 -0 -0 -1 -1 -2 -3 -3 -3 -4 -4 -3 -2 -2 -1 -1 -1 -1 -1 -1 -1 -2 -2 -2 -3 -4 -5 -4 -2 -1 -1 -2 -3 -4 -3 -1 1 3 4 5 6 7 7 7 7 9 10 9 6 2
-3 -4 -2 -3 -3 -3 -3 -4 -3 1 5 3 -2 -8 -13 -9 0 6 1 -9 -11 -7 -2 -3 -3 -3 -3 -6 -7 -6 -3 -5 -8 -9 -6 -4 -2 -1 0 -1 -1 -2 -1 -2 -3 -4 -4 -2 -1 -1 0 -0 -1 -1 -1 -1 -2 -2 -2 -2 -3 -3 -4 -5 -5 -5 -4 -3 -3 -3 -4 -3 -1 1 3 4 4 5 5 4 4 4 7 8 7 4
-3 -2 -1 -1 -1 -2 -2 -1 -0 1 2 -1 -5 -11 -17 -10 1 9 4 -5 -9 -8 -3 -2 -4 -5 -2 -1 -2 -4 -3 -5 -6 -6 -4 -6 -5 -3 -0 -2 -2 -2 -1 -2 -4 -5 -3 -1 -0 -0 0 0 -1 -1 -0 -1 -1 -1 -1 -2 -2 -2 -2 -2 -3 -4 -4 -4 -3 -2 -2 -3 -2 -0 2 2 3 4 5 2 -1 -3 -1 1 3 3
-2 -1 1 0 -1 -1 1 2 1 -0 -4 -7 -10 -11 -11 -4 4 7 5 -4 -7 -5 3 1 -4 -8 -5 -2 -1 -1 -1 -2 -3 -3 -3 -7 -7 -4 0 -2 -4 -4 0 -2 -6 -7 -3 1 -0 -2 -2 -0 -1 -1 -0 -0 -0 -0 -1 -1 -1 -1 -0 -0 -0 -1 -3 -3 -2 -2 -1 -2 -2 -1 0 2 4 6 8 5 -0 -5 -7 -5 -3 -2
-1 2 4 1 -0 -0 1 1 -0 -4 -11 -9 -7 -3 0 3 5 5 4 -3 -5 -2 7 3 -3 -7 -7 -5 -3 -0 1 0 -1 -2 -5 -10 -8 -3 3 -1 -5 -5 -2 -3 -7 -8 -3 2 -0 -3 -3 -2 -2 -2 -1 -1 -1 -1 -1 -1 -1 -1 0 1 1 1 -1 -2 -2 -2 -2 -3 -3 -3 -2 1 4 8 10 10 8 4 -0 -1 -2 -4
1 6 7 2 0 -1 -3 -1 -2 -5 -10 -5 0 5 7 3 1 1 3 -2 -2 2 8 5 1 -4 -9 -7 -3 1 0 -0 -2 -3 -4 -11 -11 -5 5 2 -4 -7 -5 -4 -6 -7 -3 -0 -1 -2 -3 -3 -2 -1 -0 -1 -2 -2 -2 -2 -1 -0 1 2 2 2 1 1 0 -0 -1 -2 -3 -4 -4 -1 4 8 11 11 13 13 12 11 7 2
5 9 7 4 -1 -5 -9 -3 -2 -3 -3 0 3 5 5 1 -1 -1 2 0 3 5 5 4 3 -1 -8 -7 -3 0 -0 -1 -2 -3 -2 -9 -11 -7 5 4 -2 -7 -7 -5 -6 -6 -3 -2 -2 -2 -3 -3 -2 -1 -1 -2 -2 -2 -2 -2 -1 0 1 2 2 2 2 3 4 5 5 2 -1 -3 -4 -2 3 8 12 11 10 11 14 17 17 16
4 5 4 0 -5 -9 -7 -2 -0 0 3 3 3 1 1 0 1 2 2 3 4 4 0 2 1 -1 -5 -6 -6 -2 4 2 0 -1 -0 -7 -10 -7 4 4 -0 -5 -6 -6 -6 -5 -2 -2 -3 -3 -3 -3 -2 -1 -2 -2 -2 -2 -1 -1 -0 0 1 1 1 0 0 0 3 6 10 9 7 3 -1 -1 2 6 12 11 9 7 8 12 15 17
3 3 3 -1 -5 -6 -2 -1 0 0 1 -1 -1 -1 -0 -1 2 4 4 3 2 1 -1 1 -0 -2 -2 -9 -9 -3 9 7 5 3 1 -7 -10 -7 3 4 0 -4 -6 -8 -7 -4 -0 -1 -2 -3 -3 -3 -3 -2 -2 -2 -2 -2 -1 0 1 1 0 0 -0 -1 -1 -2 -1 2 7 10 11 9 5 1 1 2 6 9 8 5 3 6 8 9
10 10 10 6 4 2 0 -2 -2 -2 -1 -1 1 4 2 -0 2 4 3 2 2 1 0 1 -2 -5 -4 -8 -7 -2 9 9 7 4 -1 -5 -8 -6 0 2 -1 -4 -7 -10 -7 -2 2 -1 -2 -3 -3 -3 -2 -2 -2 -2 -1 -1 -0 1 1 1 1 0 0 -1 -1 -2 -3 -2 1 6 9 10 7 3 0 -0 1 4 4 1 -2 0 2 4
8 6 4 9 11 9 0 -5 -6 -3 0 4 6 5 1 1 3 3 0 2 2 2 3 2 -4 -8 -5 -3 -3 -1 8 9 6 2 -1 -3 -6 -7 -4 -0 -0 -3 -8 -12 -8 -1 3 -1 -3 -4 -4 -3 -2 -1 -1 -1 -1 -0 1 1 1 1 1 1 0 -0 -0 -1 -3 -3 -2 2 5 7 7 3 0 -1 0 3 4 2 -2 -4 -4 -3
1 -6 -8 4 10 8 -1 -4 -3 0 4 9 8 5 -1 3 3 1 -1 2 2 1 -0 -3 -6 -7 -0 1 -1 -1 8 7 4 2 3 2 -6 -11 -5 1 1 -3 -10 -13 -8 -1 3 -1 -4 -5 -4 -2 -1 -1 -1 -1 -0 0 1 1 1 1 1 1 0 0 0 -0 -1 -2 -3 -1 2 4 5 2 -0 -2 -1 4 10 12 9 2 -3 -6
-0 -6 -7 1 5 4 0 -1 -1 1 6 10 6 1 -3 4 4 2 -1 2 2 -0 -2 -4 -3 0 4 2 -1 -1 4 4 3 4 8 3 -7 -13 -2 3 2 -5 -14 -13 -7 -1 0 -2 -4 -5 -3 -2 -1 -1 -0 0 0 1 1 1 1 1 1 0 0 0 -0 -0 -1 -1 -2 -2 -0 1 3 1 -1 -3 -3 2 10 18 21 16 7 -1
-0 -3 -4 -1 0 1 1 -0 -1 -1 3 4 1 -2 -2 3 4 4 2 3 2 2 1 3 4 4 1 1 0 -1 -2 2 5 7 8 -1 -10 -11 0 5 3 -5 -16 -12 -6 -0 -2 -5 -6 -4 -2 -2 -1 0 1 1 1 2 2 2 2 2 1 0 0 0 0 0 -0 -1 -1 -2 -1 -0 1 0 -2 -4 -5 -1 6 16 24 24 18 8
-2 -3 -4 -3 -2 -0 1 -1 -2 -2 -1 -0 -1 -1 -0 2 3 3 4 4 4 4 4 7 6 2 -4 0 -0 -4 -7 1 5 7 5 -2 -8 -9 -1 5 4 -3 -12 -11 -5 -1 -3 -7 -7 -5 -2 -3 -2 0 1 2 2 2 2 3 2 2 1 0 0 0 0 0 -0 -0 -1 -1 -1 -1 -0 -1 -3 -4 -6 -4 3 11 20 23 21 15
-1 -2 -3 -2 0 2 4 3 2 3 6 9 8 6 4 5 5 6 6 4 5 6 8 8 3 -2 -4 1 -1 -6 -7 0 3 3 1 -0 -4 -7 -5 3 4 -0 -7 -7 -4 -2 -3 -8 -9 -7 -4 -4 -2 0 2 2 2 2 2 2 2 1 1 0 0 0 0 0 0 -0 -1 -1 -1 -1 -1 -1 -2 -4 -6 -5 -1 6 13 18 19 17
3 2 2 4 6 7 7 6 6 8 10 15 16 16 16 15 15 12 6 1 3 6 9 6 1 -3 -2 1 -3 -7 -5 1 2 1 0 3 1 -4 -9 0 3 2 -2 -4 -3 -2 -2 -9 -11 -10 -6 -5 -3 -1 1 2 2 1 1 1 1 1 0 0 0 0 1 1 1 0 -0 -1 -1 -1 -1 -0 -1 -3 -6 -6 -3 1 6 11 15 17
4 5 7 8 8 7 6 5 5 5 5 8 12 19 28 33 30 19 2 -1 3 8 8 3 0 -1 -0 -2 -5 -6 -0 3 1 0 3 7 4 -4 -11 -0 3 3 0 -2 -3 -3 -2 -9 -10 -9 -7 -5 -4 -3 -2 -0 0 0 -1 -1 -0 -0 -1 -0 0 0 1 1 1 1 1 0 -1 -1 -1 1 1 -1 -5 -7 -4 -1 3 8 14 18
3 4 4 4 3 2 2 1 1 1 2 2 5 10 20 33 33 24 7 6 10 12 7 2 -0 -0 -1 -3 -3 -1 2 1 0 1 5 8 2 -7 -9 1 2 1 2 1 -1 -3 -6 -10 -9 -7 -6 -5 -4 -4 -5 -3 -1 -1 -1 -1 -1 -1 -1 -1 -0 0 0 1 2 3 3 2 -0 -1 -2 0 3 2 -3 -7 -5 -0 4 9 14 16
2 2 1 -1 -1 -1 -1 -2 -1 -1 1 3 4 5 6 13 16 15 9 11 13 12 5 1 0 1 1 2 4 3 -1 -4 -2 2 5 5 -2 -8 -5 1 1 -0 4 5 4 -1 -10 -13 -10 -6 -5 -4 -5 -5 -5 -4 -3 -2 -2 -1 -1 -1 -0 0 0 -0 -1 0 1 3 4 4 2 -0 -2 0 3 4 -1 -6 -4 1 5 11 14 15
2 1 -2 -4 -4 -3 -3 -4 -4 -2 0 3 4 4 3 2 1 1 1 4 6 7 5 3 2 3 4 7 5 0 -9 -7 -2 4 3 1 -4 -7 -1 1 -0 -1 3 6 6 1 -8 -12 -11 -7 -4 -4 -5 -5 -5 -4 -3 -3 -3 -3 -2 -2 -1 0 0 -0 -1 -1 -0 1 3 4 4 2 -1 -0 3 4 0 -4 -3 2 6 12 16 15
1 1 -1 -1 -1 -1 -2 -4 -5 -4 -3 -0 2 3 3 2 1 0 -0 -0 1 3 4 4 3 3 4 4 1 -5 -12 -5 2 5 2 -1 -4 -5 0 2 0 -1 2 4 4 1 -4 -9 -10 -7 -2 -4 -5 -5 -5 -4 -3 -3 -3 -4 -4 -4 -2 -0 -0 -1 -1 -0 -0 -0 0 3 4 3 -1 -1 2 4 1 -2 -1 4 9 13 15 15
-0 0 0 1 2 1 -0 -2 -3 -4 -4 -3 -1 1 3 3 4 3 1 0 1 2 3 3 4 4 3 2 -1 -5 -8 -2 3 5 3 0 -2 -3 -1 1 1 0 2 3 3 1 -2 -7 -7 -6 -3 -4 -5 -5 -5 -4 -3 -3 -3 -4 -5 -5 -3 -1 -1 -1 -0 0 0 -0 0 2 4 4 1 -1 0 2 1 -0 1 5 11 13 14 14
-2 -1 -1 0 1 1 -0 -1 -2 -4 -4 -3 -2 -0 2 3 4 5 4 2 2 2 2 3 3 3 3 3 0 -3 -6 -2 3 6 4 1 -1 -3 -2 1 1 2 4 4 3 2 -0 -4 -4 -3 -4 -6 -6 -5 -5 -4 -4 -3 -3 -4 -4 -5 -4 -2 -1 -0 -0 0 0 0 0 1 4 5 4 1 -1 -1 -1 -1 1 5 13 14 13 13
-3 -3 -2 -1 -1 -1 -2 -2 -2 -3 -4 -4 -3 -2 -0 1 2 3 4 4 3 3 3 2 3 3 3 3 1 -3 -8 -3 4 8 5 2 -1 -1 0 -1 -0 2 5 2 2 2 0 -3 -3 -1 -1 -5 -8 -8 -6 -4 -3 -3 -4 -4 -4 -4 -4 -2 -1 -1 -0 0 0 0 1 1 3 5 5 3 -0 -3 -4 -3 -2 2 10 14 14 12
-3 -4 -4 -3 -2 -2 -2 -2 -1 -2 -3 -4 -4 -3 -2 -2 -1 0 2 3 4 4 4 3 3 2 2 2 0 -3 -6 -0 6 9 5 2 1 1 1 -3 -2 1 5 2 1 1 0 -2 -2 -1 1 -2 -6 -10 -10 -5 -3 -3 -5 -6 -5 -4 -3 -2 -1 -1 -1 -0 0 1 1 1 2 3 4 5 3 -1 -5 -5 -5 -3 1 10 14 12
-3 -5 -5 -4 -3 -2 -2 -1 -1 -1 -3 -4 -4 -3 -2 -2 -1 -1 1 3 4 4 5 4 3 2 1 1 -1 -2 -2 4 7 8 5 3 2 2 0 -3 -2 1 4 3 2 1 2 1 0 0 1 -2 -5 -8 -9 -6 -5 -5 -7 -6 -5 -4 -4 -3 -2 -1 -2 -1 -1 0 1 2 2 2 2 5 6 4 -0 -4 -5 -5 -4 2 7 10
-2 -4 -5 -4 -2 0 1 1 -0 -2 -2 -3 -3 -3 -2 -1 -1 -0 0 1 2 3 3 3 2 2 2 1 0 -0 1 4 6 6 6 4 3 2 0 -2 -1 0 2 2 3 4 5 4 3 1 -1 -4 -6 -6 -5 -4 -4 -6 -8 -6 -5 -4 -4 -3 -2 -2 -2 -2 -2 -1 0 1 2 2 2 4 5 5 3 0 -3 -5 -4 -2 1 4
-2 -3 -3 -0 4 6 6 3 0 -2 -2 -2 -2 -2 -1 -1 -1 -1 -0 0 1 1 2 2 1 1 1 2 2 1 2 2 3 4 5 4 3 2 1 0 -1 -1 0 3 4 5 6 4 2 -0 -2 -3 -4 -5 -4 -2 -3 -4 -5 -5 -5 -6 -5 -3 -2 -2 -2 -2 -3 -2 -1 -0 1 2 2 2 2 3 4 3 1 -0 -0 -2 -0 3
-2 -2 -1 2 5 7 6 3 0 -1 -1 -2 -1 -0 0 -0 -1 -1 -1 -0 0 1 1 1 1 0 0 1 1 1 1 1 2 3 3 3 2 1 1 0 -1 -1 1 3 4 4 4 2 0 -2 -1 0 -1 -2 -3 -3 -2 -2 -0 -1 -5 -9 -8 -3 -2 -2 -2 -2 -3 -3 -2 -1 -0 1 1 1 1 1 2 3 4 5 6 4 5 10
-1 -1 -1 0 2 3 3 1 1 0 1 1 1 1 1 0 -0 -1 -2 -1 -1 -1 -0 1 0 -1 -2 -2 -1 -1 1 1 2 2 2 1 1 2 1 -0 -0 1 3 4 3 2 2 2 1 -0 -0 -0 -0 -1 -1 -3 -2 0 3 0 -4 -7 -6 -4 -3 -3 -2 -3 -3 -3 -3 -2 -1 -1 0 0 0 -0 -0 2 4 6 9 8 9 13
1 -0 -1 -1 -0 0 0 1 2 3 4 5 5 3 1 1 1 0 -1 -1 -2 -2 -1 0 0 -1 -2 -4 -5 -4 -2 -1 1 2 2 2 2 2 1 0 0 1 4 4 3 2 0 1 1 -0 -2 -0 1 1 -2 -4 -3 -0 2 -0 -2 -3 -2 -5 -5 -4 -3 -3 -3 -3 -3 -2 -2 -1 -1 0 0 -0 -0 0 1 3 5 7 9 12
2 -1 -2 -2 -2 -1 -1 -0 1 2 4 5 4 3 2 2 2 1 0 -1 -2 -2 -1 -1 -0 0 -0 -3 -6 -7 -6 -4 -1 1 1 1 2 2 1 1 1 1 3 5 4 2 -1 1 1 -1 -4 -1 2 2 -1 -3 -3 -2 -1 -1 1 3 2 -6 -8 -6 -4 -4 -3 -3 -3 -3 -2 -2 -1 0 1 1 0 -1 -1 -1 0 1 2 4
0 -2 -3 -3 -3 -2 -1 -1 -1 -0 1 2 2 2 1 2 2 1 1 -1 -2 -1 -0 0 1 2 1 -2 -4 -5 -6 -5 -3 -1 -0 0 1 1 2 1 1 1 2 3 3 3 2 3 0 -2 -2 1 2 1 -2 -2 -3 -3 -4 -2 1 1 -2 -6 -6 -4 -3 -4 -4 -3 -3 -3 -2 -1 -0 0 1 1 0 -1 -1 -2 -2 -1 -1 -1
-0 -0 -1 -2 -2 -2 -1 -1 0 0 -0 -2 -2 -2 -1 -1 0 1 0 -1 -1 -0 0 1 3 4 1 -3 -3 -3 -4 -6 -6 -4 -2 -1 1 1 1 1 1 1 1 0 0 2 6 5 1 -1 0 3 3 1 -0 -1 -2 -3 -5 -3 -1 -2 -5 -4 -2 -2 -3 -4 -5 -4 -2 -1 -0 -0 -0 -1 -1 -1 -1 -1 -1 -2 -2 -2 -2 -2
3 4 4 2 2 2 2 3 5 6 5 2 0 -1 -1 0 1 1 1 1 0 0 -0 2 3 3 -1 -3 -2 -1 -2 -4 -6 -6 -5 -3 -1 1 1 1 1 1 1 -0 -1 0 2 2 2 4 6 6 4 1 -1 -1 -0 -1 -4 -3 -2 -1 -2 -1 -1 -3 -4 -4 -4 -3 -1 1 1 0 -1 -2 -3 -3 -2 -2 -2 -2 -3 -3 -4 -5
1 2 3 2 1 -0 -2 -1 2 6 10 11 10 9 7 6 5 4 2 2 1 1 1 2 2 1 -3 -2 -1 -0 -1 -3 -4 -5 -5 -4 -3 -1 0 0 1 1 1 1 1 0 0 0 2 5 9 10 8 4 0 1 1 1 -2 -3 -2 -1 -1 -2 -3 -4 -5 -3 -2 -2 -0 1 0 -1 -3 -2 -2 -2 -2 -2 -2 -2 -2 -3 -4 -5
-1 -1 -1 1 2 2 1 -1 -1 0 2 4 7 9 11 10 8 6 4 3 3 3 3 3 2 -0 -2 -2 -1 -1 -0 -1 -2 -3 -4 -4 -4 -2 -1 -0 0 1 1 1 1 1 0 1 1 3 4 6 6 5 3 4 4 2 -0 -1 -0 -0 -2 -4 -5 -4 -3 -2 -1 -0 1 -1 -2 -3 -4 -2 -2 -2 -3 -3 -3 -2 -2 -3 -3 -4
-0 -1 -1 -0 1 2 2 1 -0 -1 -3 -3 -1 3 7 9 10 9 6 4 4 4 4 3 1 -0 -2 -2 -2 -1 0 -0 -1 -2 -3 -3 -3 -3 -2 -1 -0 1 1 1 0 0 0 0 -0 -1 -0 2 3 3 1 3 4 4 4 3 3 2 -1 -2 -3 -2 -1 -1 -1 0 1 -2 -3 -4 -3 -2 -3 -4 -5 -4 -4 -4 -3 -3 -4 -5
-0 -0 -0 -1 -1 -1 -1 -1 -0 -1 -2 -3 -3 -1 2 6 9 10 9 7 6 5 3 2 1 0 -1 -2 -2 -1 0 -0 -1 -1 -2 -2 -2 -1 -1 -1 0 1 1 1 1 1 2 0 -2 -4 -4 -2 0 1 1 -1 0 2 5 4 4 4 4 2 0 -0 -0 0 1 1 1 -0 -1 -1 -0 -1 -3 -4 -5 -5 -5 -6 -6 -5 -5 -6
-1 -1 -0 -1 -1 -1 -1 -1 -1 -1 -1 -2 -3 -3 -2 1 4 8 9 9 7 5 3 2 1 1 -1 -2 -1 -1 -1 -1 -1 -2 -2 -1 -0 0 -0 0 1 3 3 3 2 3 4 3 -1 -5 -10 -6 -2 1 1 -1 -1 -0 1 -0 1 4 6 5 3 2 2 2 2 2 3 2 2 2 2 0 -1 -1 -2 -4 -6 -7 -7 -6 -6 -6
Height
1417 1416 1417 1418 1417 1416 1414 1415 1415 1415 1414 1414 1414 1414 1414 1413 1413 1413 1413 1412 1411 1410 1410 1409 1408 1407 1406 1405 1405 1405 1405 1405 1405 1404 1404 1404 1403 1402 1402 1401 1401 1401 1400 1400 1399 1399 1398 1398 1397 1397 1396 1396 1396 1395 1395 1395 1395 1395 1395 1395 1395 1395 1395 1395 1396 1396 1397 1398 1399 1400 1401 1402 1402 1403 1404 1405 1406 1407 1407 1408 1409 1410 1411 1413 1414 1416
1415 1415 1415 1415 1415 1414 1412 1412 1413 1413 1412 1412 1412 1412 1411 1411 1410 1410 1409 1409 1409 1408 1407 1406 1405 1405 1404 1403 1403 1403 1402 1402 1402 1401 1401 1400 1400 1400 1399 1399 1398 1398 1397 1397 1396 1396 1395 1395 1395 1394 1394 1393 1393 1392 1392 1392 1392 1392 1391 1391 1391 1391 1392 1392 1392 1393 1393 1394 1395 1396 1397 1398 1399 1400 1401 1402 1403 1404 1404 1405 1405 1406 1408 1410 1411 1413
1413 1413 1412 1413 1413 1412 1410 1410 1410 1411 1410 1410 1409 1409 1409 1408 1407 1407 1406 1406 1405 1405 1405 1404 1403 1402 1401 1400 1400 1400 1399 1399 1399 1398 1398 1398 1397 1397 1396 1396 1395 1395 1395 1394 1394 1393 1393 1392 1392 1391 1391 1390 1390 1390 1389 1389 1389 1389 1388 1388 1388 1388 1389 1389 1389 1389 1390 1391 1392 1393 1394 1395 1396 1396 1397 1398 1399 1400 1401 1402 1403 1404 1405 1406 1408 1409
1411 1410 1410 1410 1410 1409 1408 1407 1407 1408 1408 1407 1406 1406 1406 1405 1404 1404 1403 1403 1403 1402 1401 1401 1400 1400 1398 1397 1397 1396 1396 1396 1395 1395 1395 1395 1394 1394 1394 1393 1393 1392 1392 1391 1391 1390 1390 1389 1389 1389 1388 1388 1387 1387 1386 1386 1386 1386 1386 1385 1385 1385 1385 1386 1386 1386 1387 1387 1388 1389 1390 1391 1392 1393 1394 1395 1396 1397 1398 1399 1400 1400 1401 1403 1404 1405
1409 1408 1407 1408 1407 1406 1405 1405 1405 1405 1405 1404 1404 1403 1402 1402 1401 1400 1400 1400 1399 1399 1398 1397 1397 1396 1395 1395 1394 1393 1393 1393 1393 1392 1392 1392 1391 1391 1391 1390 1390 1389 1389 1388 1388 1387 1387 1386 1386 1386 1385 1385 1385 1384 1384 1384 1383 1383 1383 1383 1383 1383 1383 1383 1383 1383 1384 1384 1385 1385 1386 1387 1388 1389 1390 1391 1392 1394 1395 1396 1397 1398 1399 1400 1400 1402
1405 1406 1406 1406 1405 1403 1403 1402 1402 1402 1402 1401 1400 1400 1399 1398 1398 1397 1396 1396 1395 1395 1394 1393 1393 1392 1392 1391 1391 1390 1390 1390 1390 1389 1389 1389 1389 1388 1388 1387 1387 1386 1386 1385 1385 1385 1384 1384 1383 1383 1382 1382 1382 1381 1381 1381 1380 1380 1380 1380 1380 1380 1380 1380 1380 1380 1381 1381 1382 1382 1383 1383 1384 1385 1387 1388 1389 1391 1392 1394 1395 1396 1396 1397 1398 1399
1403 1403 1404 1403 1402 1400 1400 1399 1399 1400 1399 1398 1397 1396 1395 1395 1395 1394 1393 1392 1391 1391 1390 1389 1389 1389 1388 1388 1388 1387 1387 1387 1386 1386 1386 1385 1385 1385 1385 1385 1384 1384 1383 1383 1382 1382 1381 1381 1380 1380 1380 1379 1379 1379 1378 1378 1377 1377 1377 1377 1377 1377 1377 1377 1378 1378 1378 1378 1379 1379 1380 1380 1381 1382 1384 1385 1386 1388 1389 1390 1392 1393 1394 1395 1396 1397
1400 1400 1400 1400 1399 1398 1397 1396 1396 1397 1397 1396 1395 1393 1392 1392 1391 1390 1390 1389 1388 1387 1387 1386 1385 1385 1385 1384 1384 1384 1384 1384 1383 1383 1382 1382 1382 1382 1381 1381 1381 1381 1380 1380 1379 1379 1378 1378 1377 1377 1377 1376 1376 1375 1375 1375 1375 1374 1374 1374 1374 1374 1374 1375 1375 1375 1375 1375 1375 1376 1377 1378 1379 1380 1380 1382 1383 1384 1385 1387 1389 1390 1392 1393 1394 1395
1398 1397 1397 1397 1397 1396 1394 1393 1393 1394 1394 1394 1393 1391 1390 1389 1388 1387 1386 1385 1385 1384 1384 1383 1381 1380 1380 1380 1381 1381 1380 1380 1380 1379 1379 1379 1378 1378 1378 1378 1377 1377 1377 1377 1376 1376 1375 1375 1375 1374 1374 1373 1373 1372 1372 1371 1371 1371 1371 1371 1371 1371 1371 1371 1371 1372 1372 1372 1373 1373 1374 1375 1376 1377 1378 1379 1380 1381 1382 1384 1386 1388 1389 1390 1392 1393
1396 1395 1394 1393 1394 1393 1392 1390 1389 1390 1391 1391 1390 1389 1388 1387 1386 1385 1383 1382 1381 1381 1381 1380 1379 1377 1376 1377 1377 1377 1377 1377 1376 1376 1376 1375 1375 1375 1375 1374 1374 1374 1374 1373 1373 1373 1372 1372 1371 1371 1370 1370 1370 1369 1369 1368 1368 1368 1368 1368 1367 1367 1367 1368 1368 1369 1369 1370 1370 1370 1371 1372 1372 1373 1374 1375 1376 1378 1379 1381 1382 1384 1386 1387 1389 1391
1392 1392 1391 1390 1390 1390 1389 1387 1386 1386 1387 1387 1387 1386 1385 1385 1384 1382 1380 1378 1377 1378 1378 1377 1376 1375 1374 1373 1373 1374 1374 1373 1373 1372 1372 1372 1372 1372 1372 1372 1371 1371 1370 1370 1370 1370 1369 1369 1369 1368 1368 1367 1367 1366 1365 1365 1365 1364 1364 1364 1364 1364 1364 1364 1364 1365 1365 1366 1367 1367 1368 1369 1369 1370 1371 1372 1373 1374 1376 1377 1379 1381 1382 1384 1386 1388
1389 1388 1388 1387 1386 1385 1385 1385 1384 1384 1385 1385 1384 1383 1381 1380 1380 1380 1378 1375 1374 1374 1375 1374 1373 1372 1371 1371 1370 1370 1370 1370 1369 1369 1369 1369 1369 1369 1369 1369 1368 1368 1368 1367 1367 1367 1366 1366 1366 1365 1365 1364 1364 1363 1363 1362 1361 1360 1360 1360 1360 1360 1360 1360 1361 1361 1362 1363 1364 1364 1365 1365 1366 1367 1368 1369 1370 1371 1373 1374 1376 1377 1379 1380 1382 1384
1386 1385 1385 1384 1383 1382 1382 1382 1382 1381 1381 1381 1380 1379 1377 1376 1376 1376 1375 1372 1371 1371 1371 1370 1370 1369 1369 1369 1369 1368 1368 1367 1366 1366 1365 1365 1365 1365 1366 1365 1365 1365 1365 1365 1364 1364 1364 1363 1363 1362 1362 1361 1361 1360 1360 1359 1358 1357 1357 1356 1356 1356 1357 1357 1358 1358 1359 1359 1360 1361 1361 1362 1363 1364 1365 1366 1367 1368 1370 1371 1373 1375 1376 1378 1379 1381
1382 1382 1381 1380 1379 1379 1379 1379 1379 1378 1378 1377 1377 1375 1374 1373 1373 1373 1372 1370 1368 1368 1368 1368 1366 1365 1365 1365 1366 1366 1365 1365 1364 1363 1363 1362 1362 1362 1363 1362 1362 1362 1362 1361 1361 1360 1360 1360 1360 1359 1359 1358 1358 1357 1357 1356 1355 1355 1354 1353 1353 1353 1353 1354 1354 1355 1355 1356 1357 1357 1358 1359 1360 1360 1362 1363 1364 1365 1367 1368 1370 1371 1373 1375 1376 1378
1380 1379 1378 1377 1376 1375 1376 1376 1376 1375 1374 1374 1373 1372 1371 1371 1370 1370 1370 1368 1366 1366 1366 1365 1364 1362 1362 1362 1363 1363 1363 1363 1362 1361 1360 1359 1359 1360 1360 1360 1359 1359 1359 1359 1358 1357 1358 1358 1357 1356 1356 1355 1355 1355 1354 1354 1353 1352 1351 1350 1350 1350 1350 1350 1351 1351 1352 1353 1354 1354 1355 1356 1356 1358 1359 1360 1361 1363 1364 1365 1367 1368 1370 1371 1372 1374
1377 1376 1375 1373 1372 1373 1373 1374 1373 1372 1371 1371 1370 1370 1369 1368 1368 1367 1367 1365 1365 1364 1364 1363 1361 1359 1358 1358 1359 1360 1361 1360 1360 1358 1357 1356 1356 1357 1358 1357 1356 1356 1356 1355 1355 1355 1355 1355 1354 1354 1353 1353 1352 1352 1352 1351 1350 1350 1349 1348 1347 1347 1347 1347 1348 1348 1349 1350 1351 1352 1352 1353 1354 1355 1356 1357 1359 1360 1361 1362 1364 1365 1367 1368 1369 1370
1374 1373 1372 1371 1370 1370 1370 1371 1371 1370 1369 1369 1368 1367 1367 1366 1365 1365 1365 1364 1363 1362 1362 1361 1360 1358 1356 1355 1356 1357 1358 1358 1357 1355 1355 1354 1353 1354 1355 1355 1354 1353 1353 1353 1353 1352 1352 1352 1351 1351 1350 1350 1350 1350 1349 1349 1348 1347 1347 1346 1345 1345 1345 1345 1345 1345 1346 1347 1348 1349 1350 1351 1351 1352 1353 1355 1356 1357 1358 1359 1360 1362 1364 1365 1366 1368
1372 1371 1370 1369 1369 1368 1368 1368 1368 1367 1367 1366 1365 1365 1364 1364 1363 1363 1362 1361 1361 1360 1359 1359 1358 1356 1355 1354 1354 1354 1355 1355 1354 1353 1352 1351 1350 1351 1353 1353 1352 1351 1350 1350 1350 1350 1350 1350 1349 1349 1348 1348 1348 1347 1347 1346 1346 1345 1345 1344 1344 1343 1343 1342 1342 1342 1343 1343 1344 1345 1347 1348 1349 1350 1351 1352 1353 1354 1355 1356 1358 1359 1361 1362 1364 1365
1369 1369 1368 1367 1366 1366 1366 1366 1365 1365 1365 1364 1363 1363 1362 1361 1361 1360 1359 1359 1358 1357 1357 1356 1355 1354 1353 1352 1352 1353 1354 1353 1352 1351 1350 1349 1348 1349 1350 1350 1350 1349 1348 1348 1348 1348 1348 1347 1347 1346 1346 1346 1345 1345 1345 1344 1344 1343 1343 1342 1342 1341 1340 1340 1340 1340 1340 1340 1341 1342 1343 1344 1346 1347 1348 1349 1350 1350 1351 1353 1355 1357 1358 1360 1361 1362
1368 1367 1366 1365 1365 1364 1363 1363 1363 1363 1363 1362 1361 1360 1360 1359 1358 1357 1356 1356 1355 1355 1354 1354 1352 1351 1351 1350 1350 1351 1352 1352 1351 1349 1348 1346 1346 1346 1348 1348 1347 1346 1345 1345 1345 1345 1345 1345 1344 1344 1344 1344 1343 1343 1342 1342 1342 1341 1340 1340 1340 1339 1338 1337 1337 1337 1337 1337 1338 1338 1339 1340 1342 1343 1345 1345 1346 1347 1348 1350 1352 1354 1355 1357 1359 1360
1367 1366 1365 1365 1364 1363 1361 1360 1360 1360 1360 1360 1359 1358 1357 1356 1355 1355 1354 1354 1353 1352 1352 1351 1350 1349 1349 1349 1349 1349 1350 1350 1349 1347 1346 1345 1344 1344 1345 1345 1345 1344 1343 1342 1343 1343 1343 1342 1342 1341 1341 1341 1341 1340 1340 1340 1339 1339 1338 1338 1337 1336 1336 1335 1335 1334 1334 1334 1335 1335 1336 1337 1338 1340 1341 1342 1343 1344 1345 1347 1349 1351 1352 1354 1356 1357
1364 1362 1362 1362 1362 1360 1359 1358 1357 1357 1357 1357 1356 1355 1354 1353 1353 1352 1351 1351 1350 1350 1349 1348 1347 1347 1347 1347 1346 1347 1348 1348 1347 1346 1345 1343 1342 1341 1342 1343 1343 1342 1341 1340 1340 1341 1341 1340 1340 1339 1339 1339 1338 1338 1338 1337 1337 1336 1336 1335 1335 1334 1333 1333 1332 1332 1331 1331 1332 1332 1333 1334 1335 1336 1338 1339 1340 1341 1342 1344 1345 1347 1349 1351 1352 1354
1361 1360 1359 1359 1359 1357 1356 1355 1355 1355 1355 1354 1353 1352 1351 1350 1350 1349 1349 1349 1348 1347 1346 1346 1345 1345 1345 1345 1344 1345 1345 1345 1345 1344 1344 1342 1340 1339 1340 1341 1340 1339 1338 1338 1338 1339 1338 1338 1337 1337 1336 1336 1336 1335 1335 1335 1334 1334 1333 1333 1332 1331 1331 1330 1330 1330 1329 1329 1329 1330 1330 1331 1332 1333 1335 1336 1337 1338 1340 1341 1342 1344 1345 1347 1349 1351
1358 1357 1356 1355 1355 1354 1353 1353 1352 1351 1351 1350 1350 1348 1347 1347 1346 1346 1346 1346 1345 1345 1344 1344 1343 1343 1342 1342 1342 1342 1342 1343 1343 1342 1342 1340 1338 1338 1339 1339 1338 1337 1335 1335 1336 1336 1336 1335 1335 1335 1334 1334 1333 1333 1333 1332 1332 1331 1331 1330 1330 1329 1328 1328 1328 1327 1327 1327 1326 1327 1327 1328 1329 1330 1332 1333 1335 1336 1337 1338 1340 1341 1343 1345 1346 1348
1355 1354 1353 1352 1351 1351 1350 1350 1349 1348 1348 1347 1346 1345 1344 1344 1343 1343 1343 1343 1343 1342 1342 1342 1341 1340 1339 1340 1340 1339 1339 1340 1340 1340 1339 1338 1336 1336 1337 1337 1337 1335 1334 1334 1334 1335 1334 1333 1333 1332 1332 1331 1331 1331 1330 1330 1330 1329 1328 1328 1327 1326 1326 1325 1325 1325 1325 1325 1324 1324 1325 1325 1326 1328 1329 1330 1332 1334 1335 1336 1337 1339 1340 1342 1344 1345
1352 1351 1350 1349 1349 1348 1348 1347 1347 1346 1345 1345 1343 1342 1341 1341 1340 1340 1340 1340 1340 1340 1340 1339 1338 1337 1337 1337 1337 1336 1336 1337 1337 1337 1337 1336 1335 1334 1334 1335 1335 1334 1332 1332 1332 1332 1332 1331 1331 1330 1330 1329 1329 1329 1328 1328 1327 1327 1326 1325 1325 1324 1324 1323 1323 1322 1322 1322 1322 1322 1322 1323 1324 1325 1326 1328 1330 1331 1333 1334 1335 1336 1338 1340 1342 1344
1350 1349 1348 1347 1346 1346 1346 1345 1345 1345 1344 1344 1342 1341 1340 1339 1338 1337 1336 1336 1336 1337 1337 1336 1335 1334 1335 1335 1334 1334 1334 1335 1334 1334 1334 1334 1333 1331 1331 1332 1333 1332 1331 1330 1330 1330 1330 1329 1329 1328 1328 1327 1327 1327 1326 1326 1325 1325 1324 1323 1322 1322 1321 1321 1320 1320 1320 1320 1320 1320 1320 1320 1321 1322 1323 1325 1327 1329 1330 1332 1333 1335 1336 1338 1340 1342
1347 1346 1345 1345 1344 1344 1343 1343 1343 1342 1342 1341 1341 1341 1340 1339 1337 1334 1333 1333 1334 1335 1334 1333 1333 1333 1332 1332 1331 1331 1332 1332 1332 1331 1332 1332 1331 1329 1329 1330 1331 1330 1330 1329 1328 1328 1328 1328 1327 1326 1326 1326 1325 1325 1325 1324 1324 1323 1322 1322 1321 1320 1320 1319 1318 1318 1318 1318 1318 1318 1318 1318 1318 1319 1321 1323 1325 1326 1328 1330 1332 1333 1335 1337 1339 1340
1343 1343 1342 1342 1341 1341 1340 1340 1340 1339 1339 1339 1339 1339 1339 1338 1336 1334 1332 1332 1333 1333 1332 1331 1331 1331 1330 1330 1330 1330 1330 1330 1330 1330 1330 1330 1329 1327 1327 1329 1329 1329 1328 1328 1327 1326 1325 1325 1325 1325 1325 1324 1324 1324 1323 1323 1322 1322 1321 1320 1320 1319 1318 1317 1316 1316 1316 1315 1315 1316 1316 1316 1316 1317 1318 1320 1322 1324 1326 1329 1330 1332 1334 1335 1336 1338
1340 1339 1339 1338 1338 1338 1337 1337 1336 1336 1336 1335 1335 1335 1335 1335 1335 1333 1332 1332 1332 1331 1330 1329 1329 1329 1329 1329 1328 1328 1327 1327 1327 1328 1329 1328 1327 1326 1326 1327 1327 1326 1327 1326 1325 1324 1323 1323 1323 1323 1323 1323 1322 1322 1321 1321 1321 1320 1320 1319 1318 1318 1317 1316 1315 1314 1314 1313 1313 1314 1314 1314 1315 1315 1316 1318 1320 1322 1324 1327 1329 1331 1332 1334 1335 1336
1337 1336 1335 1335 1334 1334 1333 1333 1333 1332 1332 1332 1332 1332 1332 1332 1332 1332 1331 1330 1330 1329 1328 1328 1327 1327 1327 1327 1327 1325 1324 1325 1326 1326 1326 1326 1325 1324 1325 1325 1325 1325 1325 1325 1325 1323 1321 1321 1321 1321 1321 1321 1320 1320 1320 1320 1319 1319 1318 1318 1317 1316 1315 1315 1314 1313 1312 1311 1311 1311 1312 1312 1313 1313 1314 1315 1317 1320 1322 1325 1327 1330 1331 1332 1333 1334
1335 1334 1333 1332 1331 1330 1330 1330 1329 1329 1329 1329 1329 1329 1330 1330 1330 1329 1329 1328 1327 1327 1326 1326 1325 1325 1325 1325 1324 1323 1323 1324 1324 1324 1324 1324 1323 1323 1323 1323 1323 1323 1323 1323 1323 1322 1321 1320 1319 1319 1319 1319 1319 1319 1318 1318 1318 1317 1317 1316 1315 1315 1314 1314 1313 1311 1310 1310 1310 1309 1310 1310 1311 1312 1312 1314 1315 1318 1320 1323 1325 1328 1329 1330 1331 1332
1332 1331 1330 1329 1328 1327 1327 1326 1326 1326 1326 1326 1326 1326 1326 1327 1327 1326 1326 1325 1325 1325 1324 1324 1324 1323 1323 1322 1322 1321 1321 1322 1322 1323 1322 1322 1322 1322 1321 1321 1321 1321 1321 1320 1320 1320 1319 1318 1318 1318 1318 1317 1317 1317 1317 1317 1317 1316 1316 1315 1314 1314 1313 1312 1311 1310 1310 1309 1308 1308 1308 1309 1310 1310 1311 1312 1314 1316 1318 1321 1324 1326 1328 1329 1330 1331
1329 1328 1327 1326 1326 1325 1324 1324 1323 1323 1323 1323 1323 1323 1324 1324 1324 1324 1324 1323 1323 1322 1322 1322 1321 1321 1321 1320 1320 1319 1319 1320 1320 1321 1320 1320 1320 1320 1320 1320 1319 1319 1319 1319 1319 1318 1317 1317 1316 1316 1316 1316 1315 1315 1315 1315 1315 1315 1315 1314 1313 1313 1312 1311 1310 1310 1309 1308 1307 1307 1307 1307 1308 1309 1310 1311 1312 1314 1316 1319 1321 1324 1326 1327 1328 1329
1326 1325 1325 1324 1323 1322 1321 1321 1320 1320 1320 1320 1320 1321 1321 1321 1321 1321 1321 1320 1320 1320 1320 1319 1319 1319 1319 1319 1318 1317 1317 1318 1319 1319 1319 1319 1318 1318 1318 1318 1318 1318 1318 1317 1317 1316 1316 1315 1315 1315 1315 1314 1314 1314 1314 1314 1314 1314 1313 1313 1312 1312 1311 1310 1310 1309 1308 1307 1306 1306 1306 1306 1307 1308 1309 1310 1311 1313 1315 1317 1319 1321 1324 1326 1327 1328
1324 1323 1322 1321 1321 1320 1319 1319 1318 1318 1318 1318 1318 1318 1319 1319 1319 1319 1318 1318 1318 1317 1317 1317 1317 1317 1317 1317 1316 1315 1315 1316 1317 1317 1317 1316 1316 1316 1316 1316 1316 1316 1316 1315 1315 1315 1315 1314 1314 1314 1314 1313 1312 1312 1312 1312 1312 1312 1312 1311 1311 1310 1310 1310 1309 1309 1308 1307 1306 1306 1306 1306 1306 1307 1308 1309 1310 1312 1314 1315 1318 1320 1321 1324 1326 1327
1321 1320 1319 1319 1318 1318 1317 1316 1316 1315 1315 1315 1315 1316 1316 1316 1316 1316 1316 1315 1315 1315 1315 1315 1315 1315 1315 1315 1314 1314 1314 1315 1315 1315 1315 1315 1315 1315 1315 1314 1314 1314 1315 1314 1314 1313 1313 1313 1313 1312 1312 1312 1311 1311 1311 1311 1311 1311 1310 1310 1310 1310 1309 1309 1309 1308 1307 1307 1306 1305 1305 1306 1306 1307 1308 1309 1310 1312 1313 1315 1317 1318 1320 1322 1324 1326
1319 1318 1317 1317 1316 1316 1315 1315 1314 1314 1313 1313 1313 1313 1313 1313 1313 1313 1313 1313 1313 1313 1313 1313 1313 1313 1313 1313 1313 1313 1313 1313 1313 1313 1313 1313 1313 1313 1313 1312 1312 1312 1313 1312 1312 1312 1312 1312 1311 1311 1310 1310 1310 1310 1310 1310 1310 1310 1309 1309 1309 1309 1308 1308 1308 1308 1307 1307 1306 1306 1305 1306 1306 1307 1308 1309 1310 1311 1312 1314 1316 1318 1320 1321 1323 1325
1317 1316 1315 1315 1315 1315 1314 1313 1312 1312 1312 1311 1311 1311 1310 1310 1310 1310 1310 1310 1310 1311 1311 1310 1310 1310 1311 1311 1311 1311 1311 1311 1311 1311 1311 1311 1311 1310 1311 1311 1310 1311 1311 1311 1311 1311 1311 1310 1310 1310 1310 1309 1309 1309 1309 1309 1309 1309 1308 1308 1308 1307 1307 1307 1307 1307 1307 1306 1306 1306 1306 1306 1306 1307 1308 1309 1309 1310 1312 1313 1315 1317 1319 1321 1323 1325
1315 1315 1314 1314 1314 1313 1312 1311 1311 1310 1310 1309 1309 1309 1308 1308 1308 1308 1308 1309 1309 1309 1309 1309 1309 1309 1309 1309 1309 1309 1309 1309 1309 1309 1309 1309 1309 1309 1309 1309 1309 1309 1309 1310 1310 1310 1310 1309 1309 1308 1309 1308 1308 1308 1308 1308 1308 1308 1308 1308 1307 1306 1306 1307 1307 1307 1307 1306 1306 1306 1306 1306 1306 1307 1308 1309 1309 1310 1311 1313 1315 1316 1318 1320 1322 1324
1314 1313 1313 1312 1312 1311 1311 1310 1309 1309 1308 1307 1307 1307 1306 1306 1306 1306 1306 1306 1306 1307 1307 1307 1307 1306 1306 1306 1306 1307 1307 1307 1307 1307 1307 1307 1307 1307 1307 1307 1307 1307 1308 1308 1308 1308 1308 1307 1307 1307 1307 1307 1307 1307 1307 1307 1307 1307 1308 1307 1306 1306 1306 1306 1306 1306 1306 1306 1306 1306 1306 1306 1307 1307 1308 1309 1310 1310 1311 1313 1314 1315 1317 1319 1320 1322
1313 1312 1311 1310 1310 1309 1309 1308 1308 1307 1306 1306 1305 1305 1304 1304 1304 1305 1305 1305 1305 1305 1305 1305 1305 1304 1304 1304 1304 1304 1304 1305 1305 1305 1305 1305 1305 1305 1305 1305 1305 1305 1306 1306 1306 1306 1306 1306 1306 1305 1305 1306 1306 1305 1305 1305 1306 1306 1307 1306 1306 1306 1306 1305 1305 1305 1306 1306 1306 1306 1306 1306 1307 1307 1308 1309 1310 1310 1312 1313 1314 1315 1316 1317 1319 1320
1311 1310 1310 1309 1308 1307 1307 1306 1306 1305 1305 1304 1304 1303 1303 1303 1303 1303 1303 1302 1302 1302 1302 1303 1302 1302 1302 1301 1301 1301 1301 1302 1302 1303 1303 1303 1303 1303 1303 1303 1303 1304 1304 1304 1304 1304 1304 1304 1304 1304 1304 1305 1305 1305 1304 1304 1305 1305 1305 1305 1306 1306 1305 1305 1305 1305 1305 1305 1306 1306 1306 1306 1307 1307 1308 1309 1310 1310 1311 1313 1314 1315 1315 1316 1318 1319
1310 1309 1308 1307 1306 1306 1305 1305 1304 1303 1303 1303 1302 1301 1301 1301 1301 1301 1301 1300 1300 1300 1300 1300 1300 1300 1300 1299 1299 1299 1299 1299 1300 1300 1301 1301 1301 1301 1301 1301 1301 1302 1302 1302 1302 1302 1302 1302 1302 1302 1302 1303 1303 1303 1303 1303 1303 1304 1304 1305 1305 1305 1304 1304 1304 1305 1305 1305 1305 1306 1306 1306 1307 1307 1308 1309 1310 1310 1311 1312 1313 1314 1315 1316 1317 1318
1308 1307 1306 1306 1305 1304 1303 1303 1302 1302 1301 1301 1300 1300 1300 1300 1299 1299 1299 1299 1299 1299 1299 1299 1299 1299 1298 1297 1297 1297 1297 1297 1297 1298 1298 1299 1299 1300 1300 1300 1300 1300 1300 1300 1300 1300 1301 1301 1300 1300 1301 1301 1301 1301 1301 1301 1302 1302 1303 1303 1304 1304 1304 1304 1304 1304 1304 1305 1305 1305 1306 1306 1307 1307 1308 1308 1309 1310 1311 1312 1313 1314 1315 1316 1317 1318
1307 1306 1305 1305 1304 1303 1302 1302 1301 1301 1300 1299 1299 1298 1298 1297 1297 1297 1297 1297 1297 1297 1297 1297 1297 1297 1296 1295 1295 1295 1295 1295 1295 1295 1296 1296 1297 1297 1298 1298 1298 1298 1298 1298 1298 1298 1299 1299 1299 1300 1300 1300 1300 1300 1300 1300 1300 1300 1301 1302 1302 1302 1303 1303 1303 1303 1303 1304 1304 1305 1305 1306 1306 1307 1307 1308 1309 1309 1310 1311 1312 1313 1314 1315 1316 1317
1305 1305 1304 1303 1302 1301 1301 1300 1300 1300 1299 1298 1298 1297 1296 1296 1295 1295 1295 1295 1295 1295 1295 1295 1295 1295 1294 1294 1294 1294 1294 1294 1294 1294 1294 1294 1295 1295 1295 1296 1296 1296 1296 1296 1296 1296 1296 1297 1297 1298 1299 1299 1298 1298 1298 1298 1299 1299 1299 1300 1300 1301 1301 1302 1302 1302 1303 1303 1303 1304 1305 1305 1306 1306 1307 1307 1308 1309 1310 1310 1311 1312 1314 1315 1315 1317
1304 1303 1302 1302 1301 1300 1299 1299 1298 1298 1297 1297 1296 1296 1295 1295 1294 1294 1293 1293 1293 1293 1293 1293 1293 1292 1292 1292 1292 1292 1292 1292 1292 1292 1292 1292 1293 1293 1294 1294 1294 1295 1295 1295 1295 1295 1295 1295 1295 1296 1297 1297 1297 1297 1297 1297 1297 1298 1298 1298 1299 1299 1300 1300 1300 1301 1302 1302 1302 1303 1304 1305 1305 1305 1306 1307 1307 1308 1309 1310 1310 1311 1313 1314 1315 1316
1303 1302 1301 1300 1299 1299 1298 1297 1296 1296 1295 1295 1294 1294 1294 1294 1293 1292 1292 1291 1291 1291 1291 1291 1291 1290 1290 1290 1290 1291 1291 1291 1291 1291 1291 1291 1291 1291 1292 1292 1293 1293 1293 1293 1293 1293 1293 1293 1293 1294 1294 1295 1295 1295 1295 1295 1296 1296 1297 1297 1297 1297 1298 1298 1299 1300 1300 1301 1301 1302 1303 1303 1304 1305 1305 1306 1306 1307 1308 1309 1310 1310 1311 1313 1314 1315
1301 1300 1299 1298 1297 1296 1296 1295 1295 1294 1293 1293 1292 1292 1292 1292 1292 1291 1290 1290 1290 1289 1289 1289 1289 1289 1289 1289 1289 1289 1289 1289 1289 1289 1289 1289 1290 1290 1290 1290 1291 1291 1292 1292 1292 1292 1292 1292 1291 1291 1291 1292 1292 1293 1293 1294 1294 1295 1295 1295 1296 1296 1296 1296 1297 1298 1299 1300 1300 1301 1301 1302 1303 1304 1304 1305 1305 1306 1307 1308 1309 1309 1310 1311 1312 1313
1300 1299 1298 1297 1296 1295 1294 1293 1293 1292 1292 1291 1291 1290 1290 1290 1290 1290 1290 1289 1288 1288 1287 1287 1287 1287 1287 1287 1287 1287 1287 1287 1287 1287 1287 1288 1288 1288 1289 1289 1290 1290 1290 1290 1290 1291 1291 1291 1290 1290 1289 1289 1290 1291 1291 1291 1292 1293 1293 1293 1294 1295 1295 1295 1296 1296 1297 1298 1299 1300 1300 1301 1301 1302 1303 1303 1304 1305 1305 1306 1307 1308 1309 1310 1310 1311